Location: Beau Repaire
(50.6144°N, 4.0551°E)
Time: 15:00:22
(UTC+00:00)

NOSS 3-3 (C) - Pass Details

Date: 15 May 2026
Orbit: 697 x 1516 km, 63.4° (Epoch: 11 January)

Event Time Altitude Azimuth Distance (km) Brightness Sun altitude
Rises 20:29:03 0° 217° (SW) 3,168 6.6 -8.7°
Reaches altitude 10° 20:31:15 10° 217° (SW) 2,308 5.9 -8.9°
Maximum altitude 20:36:30 81° 131° (SE) 877 3.7 -9.5°
Drops below altitude 10° 20:42:53 10° 45° (NE) 2,779 6.4 -10.2°
Sets 20:45:46 0° 45° (NE) 3,865 7.2 -10.5°
